Weather History for Northeast Philadelphia, PA

Change the Weather History Date:

Tuesday, December 17, 2013

  Actual Average Record
Temperature  
Mean Temperature 28 °F -  
Max Temperature 33 °F 42 °F 66 °F (2000)
Min Temperature 24 °F 28 °F 19 °F (2010)
Degree Days  
Heating Degree Days 36    
Moisture  
Dew Point 23 °F    
Average Humidity 80    
Maximum Humidity 93    
Minimum Humidity 58    
Precipitation  
Precipitation 0.10 in - - ()
Sea Level Pressure  
Sea Level Pressure 30.08 in    
Wind  
Wind Speed 5 mph (NNE)    
Max Wind Speed 9 mph    
Max Gust Speed -    
Visibility 5 miles    
Events Snow    
Averages and records for this station are not official NWS values.
T = Trace of Precipitation, MM = Missing Value Source: NWS Daily Summary

Daily Weather History Graph

Daily Weather History Graph

Search for Another Location

Airport:

Trip Planner

Search our weather history database for the weather conditions in past years. The results will help you decide how hot, cold, wet, or windy it might be!

Date:

Astronomy

Dec. 17, 2013 Rise Set
Actual Time 7:16 AM EST 4:36 PM EST
Civil Twilight 6:45 AM EST 5:06 PM EST
Nautical Twilight 6:11 AM EST 5:40 PM EST
Astronomical Twilight 5:38 AM EST 6:13 PM EST
Moon 5:14 PM EST (12/17) 7:10 AM EST (12/17)
Length of Visible Light 10h 20m
Length of Day
9h 19m
Full, 100% of the Moon is Illuminated
Dec 17
Full
Dec 25
Last Quarter
Jan 1
New
Jan 7
First Quarter
Jan 15
Full

Hourly Weather History & Observations

Time (EST) Temp. Windchill Dew Point Humidity Pressure Visibility Wind Dir Wind Speed Gust Speed Precip Events Conditions
12:54 AM 28.0 °F - 15.1 °F 58% 30.23 in 10.0 mi Calm Calm - N/A   Overcast
1:54 AM 28.0 °F 24.2 °F 16.0 °F 61% 30.23 in 10.0 mi ENE 3.5 mph - N/A   Overcast
2:54 AM 28.0 °F 22.8 °F 15.1 °F 58% 30.22 in 10.0 mi East 4.6 mph - N/A   Overcast
3:54 AM 27.0 °F 20.5 °F 14.0 °F 58% 30.20 in 6.0 mi East 5.8 mph - 0.00 in Snow Light Snow
4:29 AM 26.6 °F 17.5 °F 15.8 °F 64% 30.19 in 4.0 mi East 9.2 mph - 0.00 in Snow Light Snow
4:40 AM 26.6 °F 19.1 °F 15.8 °F 64% 30.19 in 2.0 mi East 6.9 mph - 0.00 in Snow Light Snow
4:44 AM 26.6 °F 18.2 °F 17.6 °F 69% 30.19 in 3.0 mi ESE 8.1 mph - 0.00 in Snow Light Snow
4:54 AM 26.1 °F 17.6 °F 17.1 °F 69% 30.20 in 4.0 mi ESE 8.1 mph - 0.00 in Snow Light Snow
5:13 AM 24.8 °F 16.9 °F 17.6 °F 74% 30.19 in 2.0 mi East 6.9 mph - 0.01 in Snow Light Snow
5:28 AM 24.8 °F 17.9 °F 19.4 °F 80% 30.19 in 1.8 mi East 5.8 mph - 0.01 in Snow Light Snow
5:46 AM 24.8 °F 17.9 °F 19.4 °F 80% 30.19 in 2.5 mi East 5.8 mph - 0.01 in Snow Light Snow
5:54 AM 24.1 °F 17.0 °F 19.9 °F 84% 30.20 in 2.5 mi East 5.8 mph - 0.01 in Snow Light Snow
6:02 AM 24.8 °F 19.1 °F 19.4 °F 80% 30.20 in 4.0 mi East 4.6 mph - 0.00 in Snow Light Snow
6:16 AM 24.8 °F 17.9 °F 19.4 °F 80% 30.19 in 2.5 mi East 5.8 mph - 0.00 in Snow Light Snow
6:28 AM 24.8 °F 19.1 °F 19.4 °F 80% 30.19 in 3.0 mi East 4.6 mph - 0.01 in Snow Light Snow
6:37 AM 24.8 °F 19.1 °F 19.4 °F 80% 30.19 in 7.0 mi East 4.6 mph - 0.01 in Snow Light Snow
6:54 AM 25.0 °F 18.1 °F 19.9 °F 81% 30.18 in 9.0 mi East 5.8 mph - 0.01 in   Overcast
7:54 AM 26.1 °F 18.4 °F 21.0 °F 81% 30.16 in 8.0 mi ENE 6.9 mph - N/A   Overcast
8:54 AM 28.0 °F 21.7 °F 23.0 °F 81% 30.14 in 10.0 mi NE 5.8 mph - N/A   Overcast
9:54 AM 28.9 °F 22.8 °F 24.1 °F 82% 30.12 in 7.0 mi East 5.8 mph - 0.00 in   Overcast
10:47 AM 30.2 °F 22.6 °F 26.6 °F 86% 30.06 in 5.0 mi East 8.1 mph - 0.01 in   Overcast
10:54 AM 30.0 °F 23.2 °F 27.0 °F 88% 30.06 in 5.0 mi ENE 6.9 mph - 0.01 in   Overcast
11:54 AM 32.0 °F 26.4 °F 28.0 °F 85% 30.02 in 5.0 mi North 5.8 mph - 0.00 in   Mostly Cloudy
12:16 PM 33.8 °F 29.6 °F 28.4 °F 81% 30.01 in 6.0 mi North 4.6 mph - N/A   Overcast
12:54 PM 33.1 °F 28.7 °F 28.9 °F 85% 29.99 in 5.0 mi NNW 4.6 mph - 0.00 in   Overcast
1:39 PM 33.8 °F 28.6 °F 28.4 °F 81% 29.96 in 6.0 mi North 5.8 mph - N/A   Overcast
1:54 PM 33.1 °F 27.7 °F 28.9 °F 85% 29.97 in 6.0 mi North 5.8 mph - N/A   Overcast
2:52 PM 32.0 °F 24.8 °F 28.4 °F 87% 29.98 in 2.5 mi NW 8.1 mph - 0.02 in Snow Light Snow
2:54 PM 32.0 °F 24.8 °F 28.0 °F 85% 29.99 in 2.0 mi NW 8.1 mph - 0.02 in Snow Light Snow
3:01 PM 32.0 °F 25.6 °F 28.4 °F 87% 29.98 in 2.0 mi NW 6.9 mph - 0.01 in Snow Light Snow
3:09 PM 30.2 °F 24.3 °F 28.4 °F 93% 29.98 in 1.2 mi NNW 5.8 mph - 0.01 in Snow Light Snow
3:25 PM 30.2 °F 24.3 °F 28.4 °F 93% 29.98 in 0.8 mi NW 5.8 mph - 0.03 in Snow Light Snow
3:38 PM 30.2 °F 23.4 °F 26.6 °F 86% 29.98 in 0.8 mi NNW 6.9 mph - 0.04 in Snow Light Snow
3:49 PM 30.2 °F 24.3 °F 26.6 °F 86% 29.98 in 1.8 mi North 5.8 mph - 0.05 in Snow Light Snow
3:54 PM 30.0 °F 24.1 °F 27.0 °F 88% 29.99 in 3.0 mi NNW 5.8 mph - 0.05 in Snow Light Snow
4:01 PM 30.2 °F 24.3 °F 26.6 °F 86% 29.98 in 4.0 mi NNW 5.8 mph - 0.00 in   Overcast
4:54 PM 30.0 °F 23.2 °F 26.1 °F 85% 29.99 in 6.0 mi NNW 6.9 mph - 0.00 in   Overcast
5:32 PM 28.4 °F 21.2 °F 24.8 °F 86% 29.99 in 6.0 mi North 6.9 mph - N/A   Scattered Clouds
5:54 PM 28.9 °F 21.1 °F 25.0 °F 85% 30.01 in 7.0 mi NNW 8.1 mph - N/A   Partly Cloudy
6:54 PM 28.0 °F 21.7 °F 23.0 °F 81% 30.01 in 8.0 mi NNW 5.8 mph - N/A   Clear
7:54 PM 27.0 °F 19.5 °F 21.9 °F 81% 30.00 in 9.0 mi North 6.9 mph - N/A   Clear
8:54 PM 26.1 °F 21.9 °F 21.0 °F 81% 30.01 in 10.0 mi North 3.5 mph - N/A   Clear
9:54 PM 25.0 °F 18.1 °F 19.9 °F 81% 30.00 in 9.0 mi North 5.8 mph - N/A   Clear
10:54 PM 24.1 °F 18.2 °F 19.0 °F 81% 29.99 in 10.0 mi NNW 4.6 mph - N/A   Clear
11:54 PM 24.1 °F 18.2 °F 19.0 °F 81% 29.99 in 10.0 mi North 4.6 mph - N/A   Clear